Location: Unspecified
(0.0000°N, 0.0000°E)
Time: 09:16:17
(UTC+00:00)

CZ-3B DEB - Pass Details

Date: 16 February 2026
Orbit: 643 x 41817 km, 26.5° (Epoch: 5 March)

Event Time Altitude Azimuth Distance (km) Brightness Sun altitude
Exits shadow 00:21:16 68° 96° (E) 11,685 ? -77.5°
Maximum altitude 04:46:20 63° 171° (S) 41,454 ? -21.4°
Drops below altitude 10° 11:59:28 10° 76° (ENE) 4,490 ? 77.2°
Sets 12:01:20 0° 74° (ENE) 4,924 ? 77.4°
